Location: Fort Wayne
(41.1310°N, 85.1290°W)
Time: 16:01:24
(UTC-05:00)

Amateur Radio Satellites - All Passes

Search period start: 11 December 2017 15:31
Search period end: 12 December 2017 15:31
Location: Fort Wayne, 41.1310°N, 85.1290°W

Satellite Date Start Highest point End Downlink Frequencies (MHz)
Time Altitude Azimuth
YUBILEINY 11 Dec 15:34:37 15:43:26 75° 266° (W) 15:52:09 435.215
ITUPSAT 1 11 Dec 15:35:10 15:39:24 31° 97° (E) 15:43:36 437.325
AO-7 11 Dec 15:49:15 15:57:21 57° 257° (WSW) 16:05:32 .
SO-50 11 Dec 15:56:12 15:59:31 21° 111° (ESE) 16:02:52 436.795
DOVE 4 11 Dec 16:08:22 16:13:11 36° 70° (ENE) 16:17:55 437.250
NO-84 11 Dec 16:11:45 16:15:23 34° 229° (SW) 16:19:10 435.350 FM
nSIGHT-1 11 Dec 16:18:05 16:19:40 13° 357° (N) 16:21:16 .
M-CUBED/EXP-1 PRIME 11 Dec 16:32:18 16:32:56 10° 267° (W) 16:33:35 437.505
CUBESAT XI-V 11 Dec 16:34:24 16:38:59 47° 99° (E) 16:43:30 437.345
HO-68 11 Dec 16:34:58 16:35:38 10° 47° (NE) 16:36:19 435.675
BEESAT 11 Dec 16:46:49 16:51:24 48° 289° (WNW) 16:55:57 436.000
ISS 11 Dec 16:46:52 16:48:33 13° 0° (N) 16:50:15 437.550
LilacSat-2 11 Dec 16:49:14 16:51:12 14° 65° (ENE) 16:53:12 437.200
ITAMSAT 1 11 Dec 16:50:44 16:54:27 20° 267° (W) 16:58:11 435.822/435.867
RS-15 11 Dec 16:56:34 17:08:46 63° 309° (NW) 17:20:53 29.354- 29.394
MOZHAYETS 4 11 Dec 16:58:31 17:02:14 24° 293° (WNW) 17:05:56
XW-2D 11 Dec 17:07:33 17:10:25 21° 69° (ENE) 17:13:19 145.860 - 145.880
ITUPSAT 1 11 Dec 17:13:04 17:17:06 28° 293° (WNW) 17:21:09 437.325
XW-2B 11 Dec 17:22:46 17:26:05 30° 71° (ENE) 17:29:26 145.730 - 145.750
KAITUO 1B 11 Dec 17:25:04 17:28:03 23° 69° (ENE) 17:31:04 145.475/437.950
NUDT-PHONESAT 11 Dec 17:27:51 17:30:47 23° 69° (ENE) 17:33:46 437.300
YUBILEINY 11 Dec 17:34:47 17:38:34 14° 286° (WNW) 17:42:22 435.215
SO-50 11 Dec 17:35:25 17:39:40 43° 309° (NW) 17:43:59 436.795
KKS-1 11 Dec 17:36:52 17:41:03 39° 98° (E) 17:45:11 437.445
XW-2F 11 Dec 17:37:47 17:41:20 43° 73° (ENE) 17:44:57 145.980 - 146.000
DOVE 4 11 Dec 17:46:18 17:50:50 28° 265° (W) 17:55:19 437.250
CUTE-I 11 Dec 17:48:56 17:54:11 58° 72° (ENE) 17:59:28 437.470
XW-2C 11 Dec 17:49:25 17:53:10 67° 75° (ENE) 17:56:56 145.795 - 145.815
nSIGHT-1 11 Dec 17:54:29 17:56:50 18° 17° (NNE) 17:59:11 .
CUBESAT XI-V 11 Dec 18:12:42 18:15:57 19° 295° (WNW) 18:19:12 437.345
HO-68 11 Dec 18:14:50 18:21:45 53° 67° (ENE) 18:28:41 435.675
LilacSat-2 11 Dec 18:21:29 18:25:05 42° 261° (W) 18:28:45 437.200
SEEDS 11 Dec 18:22:28 18:25:50 24° 68° (ENE) 18:29:14 437.485
ISS 11 Dec 18:23:17 18:25:57 22° 21° (NNE) 18:28:37 437.550
STARS 11 Dec 18:29:56 18:34:16 59° 101° (E) 18:38:33 437.465
O/OREOS (USA 219) 11 Dec 18:36:09 18:39:56 25° 58° (ENE) 18:43:40 437.305
PCSat 11 Dec 18:36:59 18:39:51 15° 103° (ESE) 18:42:43 145.827
CUTE 1.7 + AOD 2 11 Dec 18:37:30 18:41:40 57° 74° (ENE) 18:45:52 437.475
XW-2D 11 Dec 18:41:16 18:44:27 25° 265° (W) 18:47:39 145.860 - 145.880
STRAND 1 11 Dec 18:48:47 18:50:12 11° 89° (E) 18:51:36 437.568
CUBEBUG 2 11 Dec 18:49:13 18:53:16 45° 73° (ENE) 18:57:15 437.445
AAUSAT CUBESAT 2 11 Dec 18:52:24 18:55:36 22° 68° (ENE) 18:58:50 437.432
UWE-3 11 Dec 18:56:45 19:00:23 30° 70° (ENE) 19:04:00 435.000/436.395/437.385
XW-2B 11 Dec 18:57:42 19:00:17 18° 267° (W) 19:02:54 145.730 - 145.750
XW-2A 11 Dec 18:57:42 19:00:13 20° 70° (ENE) 19:02:47 145.665 - 145.685
KAITUO 1B 11 Dec 18:58:57 19:01:55 22° 265° (W) 19:04:57 145.475/437.950
NUDT-PHONESAT 11 Dec 19:01:40 19:04:33 22° 265° (W) 19:07:28 437.300
XW-2F 11 Dec 19:14:05 19:15:40 12° 269° (W) 19:17:16 145.980 - 146.000
KKS-1 11 Dec 19:14:07 19:17:18 20° 295° (WNW) 19:20:28 437.445
RS-15 11 Dec 19:14:32 19:24:24 27° 339° (NNW) 19:34:04 29.354- 29.394
ZACube-1 11 Dec 19:29:32 19:33:18 35° 71° (ENE) 19:37:06 437.345
nSIGHT-1 11 Dec 19:30:13 19:33:27 83° 35° (NE) 19:36:39 .
CUTE-I 11 Dec 19:31:00 19:34:35 18° 268° (W) 19:38:11 437.470
FO-29 11 Dec 19:40:56 19:44:37 15° 84° (E) 19:48:06 435.910
Oscar 11 11 Dec 19:54:59 19:59:01 40° 72° (ENE) 20:03:05 .
SEEDS 11 Dec 19:57:42 20:01:22 29° 264° (W) 20:05:04 437.485
ISS 11 Dec 19:59:26 20:02:41 68° 219° (SW) 20:05:56 437.550
HO-68 11 Dec 20:03:35 20:09:43 30° 265° (W) 20:15:53 435.675
AO-73 11 Dec 20:05:17 20:09:23 82° 79° (ENE) 20:13:32 145.935
STARS 11 Dec 20:07:56 20:10:05 14° 298° (WNW) 20:12:14 437.465
O/OREOS (USA 219) 11 Dec 20:15:22 20:19:20 31° 256° (WSW) 20:23:15 437.305
CUTE 1.7 + AOD 2 11 Dec 20:16:14 20:17:51 12° 270° (W) 20:19:28 437.475
PCSat 11 Dec 20:17:09 20:22:32 75° 299° (WNW) 20:28:00 145.827
STRAND 1 11 Dec 20:24:51 20:29:59 82° 284° (WNW) 20:35:03 437.568
AAUSAT CUBESAT 2 11 Dec 20:27:10 20:30:52 31° 264° (W) 20:34:36 437.432
DELFI C3 11 Dec 20:27:14 20:29:55 18° 67° (ENE) 20:32:36 145.870
CUBEBUG 2 11 Dec 20:27:43 20:30:06 15° 268° (W) 20:32:28 437.445
XW-2A 11 Dec 20:30:20 20:32:50 20° 265° (W) 20:35:21 145.665 - 145.685
UWE-3 11 Dec 20:33:38 20:36:51 21° 266° (W) 20:40:03 435.000/436.395/437.385
BEESAT 3 11 Dec 20:59:45 21:03:23 35° 116° (ESE) 21:07:02 437.485
ZACube-1 11 Dec 21:06:52 21:09:42 18° 267° (W) 21:12:32 437.345
nSIGHT-1 11 Dec 21:08:33 21:09:10 10° 231° (SW) 21:09:48 .
Max Valier Satellite 11 Dec 21:18:59 21:22:27 44° 73° (ENE) 21:25:57 145.860
FO-29 11 Dec 21:23:35 21:30:46 87° 283° (WNW) 21:37:02 435.910
BEESAT 2 11 Dec 21:32:01 21:35:04 21° 112° (ESE) 21:38:11 435.950
Oscar 11 11 Dec 21:32:28 21:35:19 17° 268° (W) 21:38:11 .
RS-15 11 Dec 21:33:15 21:42:34 24° 15° (NNE) 21:51:31 29.354- 29.394
TIGRISAT 11 Dec 21:53:23 21:57:05 27° 96° (E) 22:00:50 435.000
EO-88 11 Dec 21:54:50 21:58:28 89° 77° (ENE) 22:02:08 145.990 - 145.960
UNISAT 6 11 Dec 21:55:35 21:59:28 32° 97° (E) 22:03:23 437.425
DELFI C3 11 Dec 22:00:41 22:04:22 36° 262° (W) 22:08:05 145.870
PCSat 11 Dec 22:04:02 22:06:53 14° 321° (NW) 22:09:46 145.827
STRAND 1 11 Dec 22:07:11 22:08:19 11° 302° (WNW) 22:09:24 437.568
LO-87 11 Dec 22:36:40 22:39:51 31° 72° (ENE) 22:43:01 145.935 - 145.965
BEESAT 3 11 Dec 22:37:47 22:40:59 23° 313° (NW) 22:44:13 437.485
AO-85 11 Dec 22:48:57 22:52:30 35° 115° (ESE) 22:56:13 145.980
Max Valier Satellite 11 Dec 22:55:21 22:56:30 11° 269° (W) 22:57:39 145.860
ESTCUBE 1 11 Dec 23:06:38 23:11:04 60° 73° (ENE) 23:15:32 437.505/2401.250
BEESAT 2 11 Dec 23:08:53 23:12:35 35° 309° (NW) 23:16:20 435.950
FO-29 11 Dec 23:10:23 23:14:36 17° 306° (NW) 23:18:33 435.910
AIST 2D 11 Dec 23:19:59 23:23:02 26° 96° (E) 23:26:03 435.315
VELOX 1 11 Dec 23:21:00 23:23:12 14° 62° (ENE) 23:25:24 145.980
TIGRISAT 11 Dec 23:30:06 23:33:41 26° 291° (WNW) 23:37:18 435.000
UNISAT 6 11 Dec 23:32:37 23:36:00 23° 292° (WNW) 23:39:26 437.425
PRISM 11 Dec 23:36:11 23:40:17 65° 285° (WNW) 23:44:18 437.425
POLYITAN 1 11 Dec 23:37:41 23:39:57 14° 92° (E) 23:42:14 437.675
RS-15 11 Dec 23:47:02 23:58:40 54° 46° (NE) 00:09:37 29.354- 29.394
QB50P2 12 Dec 00:01:54 00:05:38 30° 97° (E) 00:09:20 145.880/145.840
LO-87 12 Dec 00:11:19 00:13:19 14° 267° (W) 00:15:20 145.935 - 145.965
DUCHIFAT 1 12 Dec 00:12:34 00:16:07 26° 96° (E) 00:19:39 145.980
SPROUT 12 Dec 00:24:38 00:28:53 80° 259° (W) 00:33:09 437.525
SO-50 12 Dec 00:26:25 00:30:07 23° 45° (NE) 00:33:51 436.795
DX 1 12 Dec 00:26:47 00:29:15 15° 63° (ENE) 00:31:44 434.975-435.025
AO-85 12 Dec 00:29:52 00:33:00 22° 315° (NW) 00:36:16 145.980
NANOSAT C BR1 12 Dec 00:36:38 00:40:48 59° 101° (E) 00:44:55 145.865
ESTCUBE 1 12 Dec 00:46:15 00:48:15 13° 270° (W) 00:50:14 437.505/2401.250
EO-79 12 Dec 00:49:41 00:53:55 85° 284° (WNW) 00:58:07 145.935-145.965
FALCONSAT 3 12 Dec 00:51:12 00:54:18 25° 167° (SSE) 00:57:22 435.103
50 SAT 12 Dec 00:51:28 00:53:51 20° 70° (ENE) 00:56:14 437.505
AIST 2D 12 Dec 00:53:32 00:56:00 18° 292° (WNW) 00:58:28 435.315
VELOX 1 12 Dec 00:54:41 00:59:06 62° 259° (W) 01:03:32 145.980
BUGSAT 1 12 Dec 01:06:09 01:09:26 24° 96° (E) 01:12:43 437.445
POLYITAN 1 12 Dec 01:11:55 01:15:58 47° 287° (WNW) 01:20:02 437.675
QB50P2 12 Dec 01:37:56 01:41:15 23° 292° (WNW) 01:44:35 145.880/145.840
DUCHIFAT 1 12 Dec 01:48:13 01:51:40 25° 292° (WNW) 01:55:06 145.980
UKube-1 12 Dec 01:51:44 01:56:03 74° 74° (ENE) 02:00:22 .
RS-15 12 Dec 02:00:01 02:10:58 49° 250° (WSW) 02:21:23 29.354- 29.394
DX 1 12 Dec 02:00:41 02:04:58 54° 259° (W) 02:09:17 434.975-435.025
SO-50 12 Dec 02:06:18 02:10:49 50° 242° (WSW) 02:15:24 436.795
NANOSAT C BR1 12 Dec 02:14:09 02:15:59 13° 297° (WNW) 02:17:49 145.865
BEESAT 12 Dec 02:16:28 02:20:01 21° 65° (ENE) 02:23:35 436.000
Oscar 19 12 Dec 02:17:06 02:22:20 77° 103° (ESE) 02:27:32 437.125/150
MOZHAYETS 4 12 Dec 02:22:49 02:26:49 32° 69° (ENE) 02:30:52
50 SAT 12 Dec 02:23:25 02:25:43 18° 265° (W) 02:28:01 437.505
AO-91 12 Dec 02:23:54 02:27:27 82° 286° (WNW) 02:30:49 145.960
FALCONSAT 3 12 Dec 02:29:36 02:32:57 33° 182° (S) 02:36:17 435.103
Gurwin Techsat 1B 12 Dec 02:33:37 02:38:58 78° 103° (ESE) 02:44:16 435.225
YUBILEINY 12 Dec 02:40:35 02:47:31 27° 81° (E) 02:54:28 435.215
BUGSAT 1 12 Dec 02:41:22 02:44:43 26° 291° (WNW) 02:48:06 437.445
ITUPSAT 1 12 Dec 02:41:40 02:46:00 36° 69° (ENE) 02:50:21 437.325
PCSat 12 Dec 03:23:03 03:26:18 16° 41° (NE) 03:29:31 145.827
ITAMSAT 1 12 Dec 03:23:40 03:27:03 17° 92° (E) 03:30:26 435.822/435.867
CUBESAT XI-V 12 Dec 03:37:18 03:41:43 45° 72° (ENE) 03:46:11 437.345
AO-7 12 Dec 03:50:38 03:58:45 51° 102° (ESE) 04:06:48 .
BEESAT 12 Dec 03:53:01 03:57:30 41° 261° (W) 04:02:00 436.000
Oscar 19 12 Dec 03:58:15 04:00:58 15° 300° (WNW) 04:03:43 437.125/150
MOZHAYETS 4 12 Dec 04:00:16 04:03:59 24° 265° (W) 04:07:43
M-CUBED/EXP-1 PRIME 12 Dec 04:06:24 04:10:54 55° 105° (ESE) 04:15:08 437.505
FALCONSAT 3 12 Dec 04:08:45 04:11:33 20° 197° (SSW) 04:14:20 435.103
Gurwin Techsat 1B 12 Dec 04:15:24 04:18:13 15° 300° (WNW) 04:21:02 435.225
ITUPSAT 1 12 Dec 04:20:06 04:23:53 23° 265° (W) 04:27:41 437.325
KKS-1 12 Dec 04:34:35 04:38:41 37° 70° (ENE) 04:42:48 437.445
YUBILEINY 12 Dec 04:34:50 04:43:33 66° 281° (W) 04:52:23 435.215
ITAMSAT 1 12 Dec 05:01:48 05:06:52 56° 288° (WNW) 05:11:54 435.822/435.867
PCSat 12 Dec 05:05:04 05:10:31 85° 61° (ENE) 05:15:56 145.827
CUBESAT XI-V 12 Dec 05:16:09 05:19:18 18° 268° (W) 05:22:29 437.345
BEESAT 3 12 Dec 05:16:25 05:19:32 22° 47° (NE) 05:22:37 437.485
STARS 12 Dec 05:26:01 05:30:18 52° 72° (ENE) 05:34:34 437.465
M-CUBED/EXP-1 PRIME 12 Dec 05:41:50 05:44:44 17° 302° (WNW) 05:47:34 437.505
AO-7 12 Dec 05:43:45 05:51:16 39° 300° (WNW) 05:58:46 .
DOVE 4 12 Dec 05:44:50 05:49:27 89° 97° (E) 05:53:47 437.250
BEESAT 2 12 Dec 05:49:22 05:51:53 16° 43° (NE) 05:54:23 435.950
LilacSat-2 12 Dec 05:55:03 05:57:55 19° 94° (E) 06:00:45 437.200
STRAND 1 12 Dec 06:03:37 06:06:59 18° 62° (ENE) 06:10:22 437.568
CUTE-I 12 Dec 06:06:42 06:10:52 23° 94° (E) 06:15:00 437.470
KKS-1 12 Dec 06:11:59 06:15:19 21° 266° (W) 06:18:40 437.445
XW-2D 12 Dec 06:13:05 06:16:31 30° 97° (E) 06:19:55 145.860 - 145.880
CUTE 1.7 + AOD 2 12 Dec 06:25:44 06:25:51 10° 89° (E) 06:25:59 437.475
XW-2B 12 Dec 06:28:38 06:32:21 44° 99° (E) 06:36:02 145.730 - 145.750
KAITUO 1B 12 Dec 06:29:06 06:32:32 32° 97° (E) 06:35:57 145.475/437.950
NUDT-PHONESAT 12 Dec 06:30:45 06:34:08 31° 97° (E) 06:37:30 437.300
YUBILEINY 12 Dec 06:38:42 06:42:21 13° 304° (NW) 06:46:01 435.215
XW-2F 12 Dec 06:43:19 06:47:08 65° 101° (E) 06:50:56 145.980 - 146.000
PCSat 12 Dec 06:50:54 06:53:07 12° 258° (WSW) 06:55:19 145.827
BEESAT 3 12 Dec 06:53:33 06:57:09 35° 244° (WSW) 07:00:40 437.485
XW-2C 12 Dec 06:55:44 06:59:36 79° 283° (WNW) 07:03:26 145.795 - 145.815
STARS 12 Dec 07:04:32 07:06:54 14° 268° (W) 07:09:17 437.465
AO-85 12 Dec 07:18:52 07:23:19 37° 51° (NE) 07:28:01 145.980
BEESAT 2 12 Dec 07:26:00 07:29:58 60° 241° (WSW) 07:33:52 435.950
NO-84 12 Dec 07:26:44 07:29:18 26° 129° (SE) 07:32:03 435.350 FM
LilacSat-2 12 Dec 07:28:48 07:32:11 29° 290° (WNW) 07:35:34 437.200
HO-68 12 Dec 07:29:52 07:36:54 55° 101° (E) 07:43:53 435.675
FO-29 12 Dec 07:33:18 07:40:31 47° 67° (ENE) 07:47:56 435.910
STRAND 1 12 Dec 07:40:39 07:45:41 58° 259° (W) 07:50:45 437.568
SEEDS 12 Dec 07:40:44 07:44:49 44° 99° (E) 07:48:51 437.485
CUTE-I 12 Dec 07:46:02 07:51:06 45° 290° (WNW) 07:56:07 437.470
XW-2D 12 Dec 07:47:42 07:50:27 19° 292° (WNW) 07:53:12 145.860 - 145.880
XW-2A 12 Dec 07:51:07 07:53:49 21° 95° (E) 07:56:31 145.665 - 145.685
AO-73 12 Dec 07:53:56 07:56:37 16° 92° (E) 07:59:19 145.935
CUTE 1.7 + AOD 2 12 Dec 07:57:51 08:02:08 69° 284° (WNW) 08:06:22 437.475
KAITUO 1B 12 Dec 08:03:41 08:06:15 17° 293° (WNW) 08:08:48 145.475/437.950
XW-2B 12 Dec 08:04:10 08:06:07 14° 295° (WNW) 08:08:02 145.730 - 145.750
NUDT-PHONESAT 12 Dec 08:05:12 08:07:43 17° 293° (WNW) 08:10:14 437.300
AAUSAT CUBESAT 2 12 Dec 08:08:39 08:12:34 38° 98° (E) 08:16:26 437.432
CUBEBUG 2 12 Dec 08:15:45 08:19:58 75° 284° (WNW) 08:24:17 437.445
UWE-3 12 Dec 08:21:26 08:25:43 70° 101° (ESE) 08:30:05 435.000/436.395/437.385
O/OREOS (USA 219) 12 Dec 08:48:17 08:52:14 29° 104° (ESE) 08:56:11 437.305
TIGRISAT 12 Dec 08:52:14 08:55:40 24° 68° (ENE) 08:59:06 435.000
ZACube-1 12 Dec 08:52:58 08:57:18 82° 105° (ESE) 09:01:43 437.345
UNISAT 6 12 Dec 08:54:27 08:58:07 27° 69° (ENE) 09:01:45 437.425
AO-85 12 Dec 08:59:25 09:03:39 30° 246° (WSW) 09:08:06 145.980
NO-84 12 Dec 09:03:42 09:06:29 28° 328° (NNW) 09:09:28 435.350 FM
SEEDS 12 Dec 09:17:27 09:20:07 16° 295° (WNW) 09:22:45 437.485
Oscar 11 12 Dec 09:17:43 09:22:06 87° 98° (E) 09:26:27 .
HO-68 12 Dec 09:18:14 09:24:14 30° 299° (WNW) 09:30:13 435.675
FO-29 12 Dec 09:18:29 09:25:31 39° 265° (W) 09:32:48 435.910
XW-2A 12 Dec 09:23:49 09:26:24 20° 291° (WNW) 09:28:58 145.665 - 145.685
AO-73 12 Dec 09:28:54 09:33:02 45° 287° (WNW) 09:37:15 145.935
DELFI C3 12 Dec 09:37:25 09:40:46 26° 96° (E) 09:44:04 145.870
AAUSAT CUBESAT 2 12 Dec 09:44:52 09:47:42 18° 294° (WNW) 09:50:30 437.432
AIST 2D 12 Dec 09:56:25 09:56:52 10° 65° (ENE) 09:57:19 435.315
UWE-3 12 Dec 10:00:19 10:01:37 11° 297° (WNW) 10:02:56 435.000/436.395/437.385
Max Valier Satellite 12 Dec 10:22:03 10:25:45 63° 101° (E) 10:29:26 145.860
PRISM 12 Dec 10:24:33 10:28:42 84° 78° (ENE) 10:32:54 437.425
O/OREOS (USA 219) 12 Dec 10:27:36 10:31:34 28° 301° (WNW) 10:35:33 437.305
TIGRISAT 12 Dec 10:28:28 10:32:14 29° 264° (W) 10:35:59 435.000
UNISAT 6 12 Dec 10:31:12 10:34:46 25° 265° (W) 10:38:20 437.425
POLYITAN 1 12 Dec 10:31:21 10:32:41 11° 62° (ENE) 10:34:00 437.675
NO-84 12 Dec 10:44:23 10:44:45 10° 350° (N) 10:45:07 435.350 FM
QB50P2 12 Dec 10:54:34 10:57:51 23° 68° (ENE) 11:01:09 145.880/145.840
EO-88 12 Dec 10:56:41 11:00:21 68° 284° (WNW) 11:03:58 145.990 - 145.960
ESTCUBE 1 12 Dec 11:00:51 11:02:56 13° 90° (E) 11:04:59 437.505/2401.250
DUCHIFAT 1 12 Dec 11:04:31 11:07:33 20° 67° (ENE) 11:10:35 145.980
DELFI C3 12 Dec 11:12:15 11:15:22 23° 292° (WNW) 11:18:27 145.870
AIST 2D 12 Dec 11:26:10 11:29:33 49° 261° (W) 11:32:59 435.315
NANOSAT C BR1 12 Dec 11:28:17 11:32:13 41° 72° (ENE) 11:36:09 145.865
LO-87 12 Dec 11:36:10 11:39:30 39° 98° (E) 11:42:50 145.935 - 145.965
EO-79 12 Dec 11:41:28 11:45:37 68° 76° (ENE) 11:49:48 145.935-145.965
BUGSAT 1 12 Dec 11:56:16 11:58:56 17° 66° (ENE) 12:01:37 437.445
Oscar 19 12 Dec 11:57:36 12:00:18 14° 60° (ENE) 12:03:00 437.125/150
POLYITAN 1 12 Dec 12:03:43 12:07:53 66° 258° (WSW) 12:12:04 437.675
nSIGHT-1 12 Dec 12:07:33 12:10:09 23° 134° (SE) 12:12:47 .
SPROUT 12 Dec 12:11:09 12:13:55 17° 92° (E) 12:16:41 437.525
Gurwin Techsat 1B 12 Dec 12:17:18 12:20:35 17° 61° (ENE) 12:23:53 435.225
NO-84 12 Dec 12:22:38 12:23:28 11° 12° (NNE) 12:24:16 435.350 FM
QB50P2 12 Dec 12:29:47 12:33:29 30° 263° (W) 12:37:12 145.880/145.840
ESTCUBE 1 12 Dec 12:35:37 12:40:06 60° 286° (WNW) 12:44:34 437.505/2401.250
ISS 12 Dec 12:39:08 12:42:12 37° 137° (SE) 12:45:16 437.550
DUCHIFAT 1 12 Dec 12:39:11 12:42:58 34° 262° (W) 12:46:47 145.980
VELOX 1 12 Dec 12:45:07 12:48:42 24° 95° (E) 12:52:15 145.980
YUBILEINY 12 Dec 12:51:35 12:55:02 13° 56° (NE) 12:58:28 435.215
AO-7 12 Dec 13:01:39 13:06:12 16° 47° (NE) 13:10:45 .
NANOSAT C BR1 12 Dec 13:05:31 13:08:05 16° 267° (W) 13:10:40 145.865
LO-87 12 Dec 13:10:58 13:12:32 13° 294° (WNW) 13:14:07 145.935 - 145.965
AO-91 12 Dec 13:19:11 13:24:15 79° 76° (ENE) 13:28:52 145.960
BUGSAT 1 12 Dec 13:30:14 13:34:00 37° 262° (W) 13:37:46 437.445
Oscar 19 12 Dec 13:33:50 13:38:57 75° 257° (WSW) 13:44:07 437.125/150
50 SAT 12 Dec 13:39:31 13:41:29 15° 94° (E) 13:43:27 437.505
UKube-1 12 Dec 13:40:49 13:42:22 12° 91° (E) 13:43:56 .
nSIGHT-1 12 Dec 13:43:09 13:46:12 40° 330° (NNW) 13:49:17 .
SPROUT 12 Dec 13:46:00 13:49:58 40° 288° (WNW) 13:53:56 437.525
DX 1 12 Dec 13:49:12 13:52:47 25° 96° (E) 13:56:20 434.975-435.025
Gurwin Techsat 1B 12 Dec 13:54:39 13:59:57 68° 258° (WSW) 14:05:16 435.225
NO-84 12 Dec 13:58:25 14:01:43 28° 31° (NNE) 14:05:14 435.350 FM
RS-15 12 Dec 14:10:58 14:21:07 32° 103° (ESE) 14:31:13 29.354- 29.394
ISS 12 Dec 14:15:45 14:18:43 30° 334° (NNW) 14:21:41 437.550
VELOX 1 12 Dec 14:21:15 14:25:08 31° 291° (WNW) 14:28:59 145.980
ITAMSAT 1 12 Dec 14:41:10 14:45:33 28° 66° (ENE) 14:49:56 435.822/435.867
YUBILEINY 12 Dec 14:45:05 14:53:52 64° 79° (ENE) 15:02:33 435.215
AO-7 12 Dec 14:49:15 14:57:26 68° 67° (ENE) 15:05:42 .
M-CUBED/EXP-1 PRIME 12 Dec 14:50:58 14:55:10 65° 69° (ENE) 14:59:40 437.505
AO-91 12 Dec 14:59:31 15:01:00 11° 269° (W) 15:02:27 145.960
50 SAT 12 Dec 15:10:53 15:13:25 22° 290° (WNW) 15:15:57 437.505
UKube-1 12 Dec 15:14:31 15:18:46 60° 287° (WNW) 15:22:59 .
DOVE 4 12 Dec 15:15:11 15:17:03 12° 60° (ENE) 15:18:54 437.250
nSIGHT-1 12 Dec 15:21:11 15:23:05 14° 350° (N) 15:24:58 .
